Back to catalog

STARLINK-4494

AliveCommunicationsVLEO
NORAD 53558·PAYLOAD·🇺🇸 United States

Launched Aug 19, 2022 from Cape Canaveral Space Force Station

Loading…

Next Passes (next 24 hours)

TLE

FreshSource: CelesTrak SupGP

Epoch: Sep 14, 2026, 22:01 UTC

1 53558C 22101AH  26257.91784722  .00037686  00000+0  11138-2 0  2576
2 53558  53.1579 279.9537 0001178  88.7692 186.9469 15.34361070    11

Track STARLINK-4494 in real time with AllMySat

Download on the App Store